Location: *
(46.4000°N, 12.6667°E)
Time: 13:47:05
(UTC+00:00)

ISS - Pass Details

Date: 08 March 2021
Orbit: 418 x 422 km, 51.6° (Epoch: 17 April)

Event Time Altitude Azimuth Distance (km) Brightness Sun altitude
Exits shadow 03:09:52 29° 50° (NE) 793 -1.8 -25.5°
Drops below altitude 10° 03:12:03 10° 81° (E) 1,499 0.0 -25.2°
Sets 03:14:15 0° 90° (E) 2,362 1.2 -24.8°
